OK1JIL-13 Weather Reports


time (UTC)temp
C
wind
direction
speed
KPH
gust
KPH
rain 1hr
cm
rain 24hr
cm
rain mn
cm
humidity
%
barometer
mb
20260905195315 11 0.0 0.0 0.00 0.00 0.00 77 1021.4
20260905194314 10 0.0 0.0 0.00 0.00 0.00 75 1021.0
20260905193319 11 0.0 0.0 0.00 0.00 0.00 75 1021.2
20260905192315 11 0.0 0.0 0.00 0.00 0.00 77 1021.1
20260905191315 11 0.0 0.0 0.00 0.00 0.00 72 1021.2
20260905190314 11 0.0 0.0 0.00 0.00 0.00 69 1021.1
20260905185314 13 0.0 0.0 0.00 0.00 0.00 60 1021.2
20260905184315 13 0.0 0.0 0.00 0.00 0.00 58 1020.8
20260905183315 12 0.0 0.0 0.00 0.00 0.00 58 1020.7
20260905182315 13 0.0 0.0 0.00 0.00 0.00 56 1020.6
20260905181315 12 0.0 0.0 0.00 0.00 0.00 58 1020.5
20260905180314 12 0.0 0.0 0.00 0.00 0.00 57 1020.3
20260905175314 13 0.0 0.0 0.00 0.00 0.00 58 1020.3
20260905174314 12 0.0 0.0 0.00 0.00 0.00 58 1020.1
20260905173314 13 0.0 0.0 0.00 0.00 0.00 55 1020.1
20260905172314 13 0.0 0.0 0.00 0.00 0.00 57 1020.1
20260905171314 13 0.0 0.0 0.00 0.00 0.00 59 1020.1
20260905170315 13 0.0 0.0 0.00 0.00 0.00 54 1019.9
20260905165314 13 0.0 0.0 0.00 0.00 0.00 54 1019.7
20260905164314 13 0.0 0.0 0.00 0.00 0.00 53 1019.6
20260905163314 14 0.0 0.0 0.00 0.00 0.00 51 1019.6
20260905162315 14 0.0 0.0 0.00 0.00 0.00 52 1019.6
20260905161315 14 0.0 0.0 0.00 0.00 0.00 51 1019.3
20260905160314 14 0.0 0.0 0.00 0.00 0.00 51 1019.3
20260905155314 14 0.0 0.0 0.00 0.00 0.00 50 1019.3
20260905154314 14 0.0 0.0 0.00 0.00 0.00 49 1019.1
20260905153314 14 0.0 0.0 0.00 0.00 0.00 49 1019.1
20260905152315 14 0.0 0.0 0.00 0.00 0.00 51 1019.1
20260905151314 14 0.0 0.0 0.00 0.00 0.00 52 1019.1
20260905150314 15 0.0 0.0 0.00 0.00 0.00 52 1019.1
20260905145314 15 0.0 0.0 0.00 0.00 0.00 51 1019.1
20260905144314 15 0.0 0.0 0.00 0.00 0.00 56 1019.2
20260905143315 15 0.0 0.0 0.00 0.00 0.00 51 1019.2
20260905142314 15 0.0 0.0 0.00 0.00 0.00 51 1019.3
20260905141314 15 0.0 0.0 0.00 0.00 0.00 51 1019.3
20260905140314 15 0.0 0.0 0.00 0.00 0.00 49 1019.1
20260905135315 15 0.0 0.0 0.00 0.00 0.00 51 1019.3
20260905134314 15 0.0 0.0 0.00 0.00 0.00 50 1019.1
20260905133314 15 0.0 0.0 0.00 0.00 0.00 52 1019.0
20260905132314 14 0.0 0.0 0.00 0.00 0.00 55 1019.0
20260905131314 15 0.0 0.0 0.00 0.00 0.00 53 1019.0
20260905130314 15 0.0 0.0 0.00 0.00 0.00 52 1018.9
20260905125314 15 0.0 0.0 0.00 0.00 0.00 59 1018.9
20260905124314 15 0.0 0.0 0.00 0.00 0.00 54 1019.0
20260905123315 15 0.0 0.0 0.00 0.00 0.00 56 1019.0
20260905122314 15 0.0 0.0 0.00 0.00 0.00 54 1019.1
20260905121315 15 0.0 0.0 0.00 0.00 0.00 55 1019.0
20260905120314 15 0.0 0.0 0.00 0.00 0.00 54 1019.1
20260905115314 16 0.0 0.0 0.00 0.00 0.00 57 1019.3
20260905114318 15 0.0 0.0 0.00 0.00 0.00 56 1019.3
20260905113314 15 0.0 0.0 0.00 0.00 0.00 60 1019.3
20260905112314 15 0.0 0.0 0.00 0.00 0.00 58 1019.3
20260905111314 15 0.0 0.0 0.00 0.00 0.00 61 1019.3
20260905110314 13 0.0 0.0 0.00 0.00 0.00 59 1019.2
20260905105315 13 0.0 0.0 0.00 0.00 0.00 64 1019.1
20260905104314 14 0.0 0.0 0.00 0.00 0.00 64 1019.2
20260905103314 13 0.0 0.0 0.00 0.00 0.00 61 1019.1
20260905102314 15 0.0 0.0 0.00 0.00 0.00 59 1019.0
20260905101314 15 0.0 0.0 0.00 0.00 0.00 65 1018.9
20260905100314 15 0.0 0.0 0.00 0.00 0.00 62 1018.8
20260905095314 14 0.0 0.0 0.00 0.00 0.00 65 1018.5
20260905094314 13 0.0 0.0 0.00 0.00 0.00 68 1018.6
20260905093316 13 0.0 0.0 0.00 0.00 0.00 71 1018.7
20260905092313 13 0.0 0.0 0.00 0.00 0.00 72 1018.8
20260905091313 13 0.0 0.0 0.00 0.00 0.00 73 1018.6
20260905090314 13 0.0 0.0 0.00 0.00 0.00 74 1018.6
20260905085313 12 0.0 0.0 0.00 0.00 0.00 77 1018.6
20260905084313 12 0.0 0.0 0.00 0.00 0.00 74 1018.4
20260905083313 12 0.0 0.0 0.00 0.00 0.00 77 1018.3
20260905082313 12 0.0 0.0 0.00 0.00 0.00 78 1018.2
20260905081313 12 0.0 0.0 0.00 0.00 0.00 79 1018.0
20260905080313 12 0.0 0.0 0.00 0.00 0.00 79 1018.1
20260905075313 11 0.0 0.0 0.00 0.00 0.00 80 1017.9
20260905074313 12 0.0 0.0 0.00 0.00 0.00 80 1017.9
20260905073313 12 0.0 0.0 0.00 0.00 0.00 79 1017.9
20260905072313 11 0.0 0.0 0.00 0.00 0.00 82 1017.7
20260905071313 11 0.0 0.0 0.00 0.00 0.00 80 1017.8
20260905070313 11 0.0 0.0 0.00 0.00 0.00 81 1017.7
20260905065313 11 0.0 0.0 0.00 0.00 0.00 81 1017.7
20260905064313 11 0.0 0.0 0.00 0.00 0.00 81 1017.5
20260905063313 11 0.0 0.0 0.00 0.00 0.00 81 1017.4
20260905062313 11 0.0 0.0 0.00 0.00 0.00 80 1017.4
20260905061313 11 0.0 0.0 0.00 0.00 0.00 81 1017.4
20260905060313 11 0.0 0.0 0.00 0.00 0.00 80 1017.3
20260905055313 11 0.0 0.0 0.00 0.00 0.00 81 1017.2
20260905054313 11 0.0 0.0 0.00 0.00 0.00 81 1017.0
20260905053313 11 0.0 0.0 0.00 0.00 0.00 82 1016.7
20260905052313 11 0.0 0.0 0.00 0.00 0.00 81 1016.7
20260905051313 11 0.0 0.0 0.00 0.00 0.00 82 1016.5
20260905050313 11 0.0 0.0 0.00 0.00 0.00 84 1016.4
20260905045313 11 0.0 0.0 0.00 0.00 0.00 82 1016.0
20260905044313 11 0.0 0.0 0.00 0.00 0.00 81 1016.1
20260905043313 11 0.0 0.0 0.00 0.00 0.00 81 1016.1
20260905042312 12 0.0 0.0 0.00 0.00 0.00 81 1016.0
20260905041313 11 0.0 0.0 0.00 0.00 0.00 82 1016.0
20260905040312 11 0.0 0.0 0.00 0.00 0.00 82 1015.9
20260905035312 11 0.0 0.0 0.00 0.00 0.00 82 1015.9
20260905034313 11 0.0 0.0 0.00 0.00 0.00 83 1016.0
20260905033312 12 0.0 0.0 0.00 0.00 0.00 81 1015.6
20260905032312 11 0.0 0.0 0.00 0.00 0.00 80 1015.5
20260905031312 12 0.0 0.0 0.00 0.00 0.00 80 1015.7
20260905030312 11 0.0 0.0 0.00 0.00 0.00 82 1015.7
20260905025312 12 0.0 0.0 0.00 0.00 0.00 80 1015.3
20260905024313 12 0.0 0.0 0.00 0.00 0.00 80 1015.5
20260905023312 12 0.0 0.0 0.00 0.00 0.00 80 1015.5
20260905022312 11 0.0 0.0 0.00 0.00 0.00 81 1015.2
20260905021313 11 0.0 0.0 0.00 0.00 0.00 80 1014.8
20260905020313 11 0.0 0.0 0.00 0.00 0.00 79 1014.7
20260905015312 11 0.0 0.0 0.00 0.00 0.00 80 1014.7
20260905014312 11 0.0 0.0 0.00 0.00 0.00 79 1014.1
20260905013312 11 0.0 0.0 0.00 0.00 0.00 79 1014.3
20260905012312 11 0.0 0.0 0.00 0.00 0.00 80 1014.2
20260905011312 11 0.0 0.0 0.00 0.00 0.00 80 1014.5
20260905010312 11 0.0 0.0 0.00 0.00 0.00 81 1014.7
20260905005312 11 0.0 0.0 0.00 0.00 0.00 79 1014.6
20260905004313 11 0.0 0.0 0.00 0.00 0.00 79 1014.7
20260905003313 12 0.0 0.0 0.00 0.00 0.00 81 1014.4
20260905002312 12 0.0 0.0 0.00 0.00 0.00 81 1014.4
20260905001312 12 0.0 0.0 0.00 0.00 0.00 82 1014.2
20260905000312 12 0.0 0.0 0.00 0.00 0.00 81 1014.5
20260904235316 12 0.0 0.0 0.00 0.00 0.00 80 1014.3
20260904234312 12 0.0 0.0 0.00 0.00 0.00 81 1014.6
20260904233312 13 0.0 0.0 0.00 0.00 0.00 80 1014.3
20260904232312 13 0.0 0.0 0.00 0.00 0.00 81 1014.2
20260904231312 13 0.0 0.0 0.00 0.00 0.00 82 1013.8
20260904230312 13 0.0 0.0 0.00 0.00 0.00 81 1013.8
20260904225312 13 0.0 0.0 0.00 0.00 0.00 80 1013.3
20260904224312 13 0.0 0.0 0.00 0.00 0.00 80 1013.5
20260904223312 13 0.0 0.0 0.00 0.00 0.00 79 1013.3
20260904222312 13 0.0 0.0 0.00 0.00 0.00 76 1013.4
20260904221312 14 0.0 0.0 0.00 0.00 0.00 73 1013.6
20260904220312 14 0.0 0.0 0.00 0.00 0.00 74 1014.0
20260904215312 14 0.0 0.0 0.00 0.00 0.00 75 1013.4
20260904214312 15 0.0 0.0 0.00 0.00 0.00 73 1013.3
20260904213315 16 0.0 0.0 0.00 0.00 0.00 70 1013.2
20260904212311 16 0.0 0.0 0.00 0.00 0.00 69 1012.7
20260904211311 16 0.0 0.0 0.00 0.00 0.00 66 1012.9
20260904210311 16 0.0 0.0 0.00 0.00 0.00 66 1012.8
20260904205311 16 0.0 0.0 0.00 0.00 0.00 66 1012.8
20260904204311 16 0.0 0.0 0.00 0.00 0.00 66 1012.7
20260904203311 16 0.0 0.0 0.00 0.00 0.00 67 1012.8
20260904202311 17 0.0 0.0 0.00 0.00 0.00 66 1013.0
20260904201311 16 0.0 0.0 0.00 0.00 0.00 66 1013.0
20260904200311 17 0.0 0.0 0.00 0.00 0.00 67 1013.0